Tracking 31027 objects as of 19-Jul-2025
HD Live streaming from Space Station
objects crossing your sky now

STARLINK-4587

Track STARLINK-4587 now!
10-day predictions
STARLINK-4587 is classified as:


NORAD ID: 53635
Int'l Code: 2022-104AZ
Perigee: 546.1 km
Apogee: 547.7 km
Inclination: 53.2 °
Period: 95.4 minutes
Semi major axis: 6917 km
RCS: Unknown
Launch date: August 28, 2022
Source: United States (US)
Launch site: AIR FORCE EASTERN TEST RANGE (AFETR)
Your satellite tracking list
SL-12 R/B(AUX MOTOR)
Track 1 satellite(s)




NASA's NSSDC Master Catalog

Two Line Element Set (TLE):
1 53635U 22104AZ  25199.31636592  .00000603  00000-0  55998-4 0  9991
2 53635  53.2160 196.2094 0001169  83.4681 276.6445 15.08839404160844
Source of the keplerian elements: AFSPC